Regional Weather Roundup
Issued by NWS Charleston, SC

Current Version | Previous Version | Graphics & Text | Print | Product List | Glossary On
Versions: 1 2 3 4 5 6 7 8 9 10 11 12 13 14 15 16 17 18 19 20 21 22 23 24 25 26 27 28 29 30 31 32 33 34 35 36 37 38 39 40 41 42 43 44 45 46 47 48 49 50
000
ASUS42 KCHS 251027
RWRCHS

REGIONAL WEATHER ROUNDUP
NATIONAL WEATHER SERVICE CHARLESTON SC
500 AM EST SAT FEB 25 2017

NOTE: "FAIR" INDICATES FEW OR NO CLOUDS BELOW 12,000 FEET WITH NO
SIGNIFICANT WEATHER AND/OR OBSTRUCTIONS TO VISIBILITY.

NOT ALL STATIONS ARE QUALITY CONTROLLED. USE DATA WITH CAUTION...
ESPECIALLY DEWPOINT OBSERVATIONS.

SCZ027-030-031-034>040-042>050-251100-
...SOUTHEAST SOUTH CAROLINA...

CITY           SKY/WX    TMP DP  RH WIND       PRES   REMARKS
N CHARLESTON   CLEAR     56  55  97 SW5       29.79S
WATERFRONT PRK   N/A     61  61 100 CALM      29.78S
MOUNT PLEASANT FOG       54  54 100 CALM      29.79S VSB 1
JOHNS ISLAND   FOG       55  55 100 CALM      29.80R VSB 1/4
PINOPOLIS        N/A    N/A N/A N/A S5        29.69F
MONCKS CORNER  FOG       50  50 100 CALM      29.79S VSB 1
SUMMERVILLE    FAIR      52  50  93 CALM      29.80S
BEAUFORT MCAS  CLOUDY    57  57 100 SW3       29.81R FOG
BEAUFORT ARPT  PTSUNNY   59  59 100 CALM      29.80S
HILTON HEAD IS PTCLDY    64  64 100 S6        29.81S
WALTERBORO     PTSUNNY   55  55 100 CALM      29.81R
ALLENDALE      CLOUDY    61  59  94 CALM      29.79R

...SOUTHERN MIDLANDS AND PEE DEE...

CITY           SKY/WX    TMP DP  RH WIND       PRES   REMARKS
GEORGETOWN     FOG       50  50 100 CALM      29.80S VSB 1/2
KINGSTREE      FOG       50  48  93 CALM      29.78S VSB 1
ORANGEBURG     PTCLDY    56  56 100 SW6       29.79R FOG
BARNWELL       CLOUDY    61  61 100 CALM      29.80R
AIKEN          CLOUDY    61  59  94 S7        29.82R
MANNING        FAIR      54  52  94 MISG      29.78S
COLUMBIA       PTCLDY    61  58  90 SW7       29.78R
SUMTER         PTCLDY    58  56  95 SW5       29.76R
FLORENCE       CLEAR     58  58 100 S6        29.77F
MYRTLE BEACH   CLEAR     54  52  94 W3        29.79S FOG
N MYRTLE BEACH CLEAR     53  53 100 CALM      29.77F FOG

$$

GAZ063-065-086>088-099>101-113>116-118-119-134>141-150-251100-
...SOUTHEAST GEORGIA...

CITY           SKY/WX    TMP DP  RH WIND       PRES   REMARKS
SAVANNAH ARPT  CLOUDY    62  60  93 SW3       29.81R FOG
HUNTER AAF     FOG       63  63 100 CALM      29.79R VSB 3/4
FORT STEWART   CLOUDY    61  61 100 SW5       29.81R FOG
STATESBORO     MOCLDY    62  32  32 S3        29.81R
SYLVANIA       MOSUNNY  N/A N/A N/A SW3       29.81S FOG
CLAXTON        CLOUDY   N/A N/A N/A CALM      29.82R

...CSRA...CENTRAL AND FAR SOUTHEAST GEORGIA...

CITY           SKY/WX    TMP DP  RH WIND       PRES   REMARKS
THOMSON        PTCLDY    63  62  97 CALM      29.82F
AUGUSTA-BUSH   PTCLDY    62  59  90 S3        29.78S
AUGUSTA-DANIEL MOCLDY    63  58  83 S9        29.79S
SWAINSBORO     CLOUDY    61  61 100 SW3       29.81S
VIDALIA        MOCLDY    63  63 100 SW5       29.82S
EASTMAN        PTSUNNY   62  62 100 S3        29.84R
HAZLEHURST     FAIR      64  64 100 SW5       29.82R
ALMA           CLOUDY    61  61 100 SW3       29.83R
WAYCROSS       CLOUDY    65  65 100 W3        29.84R
JESUP          FOG       63  61  94 CALM      29.84R VSB 1/2
BAXLEY         FAIR      61  61 100 CALM      29.83R FOG
BRUNSWICK      CLOUDY    63  63 100 W8        29.83R FOG
SAINT SIMONS   FOG       63  63 100 W7        29.82R VSB 1/2

$$

SCZ027-028-034-036>038-045-046-048>050-GAZ119-141-251100-
...LAKE AND SUPPLEMENTAL COASTAL OBSERVATIONS...

STATION/POSITION TIME  TEMP    WIND        PRES    WAVE   SWELL
                       AIR SEA DIR/SP/G            HT/PER HT/PER/DIR
                 (UTC) (F)     (DEG/KT/KT) (MB)    (FT/S) (FT/S/D)
WINYAH BAY       0930   55        CALM     1008.0F
LAKE MURRAY      0950   62     230/  9/ 12 1008.1R
ACE BASIN NERRS  0930   57        CALM     1009.0R
FORT PULASKI     1000   63 63  240/  3/  4 1009.5
SAPELO ISLAND    1000   64     230/  7     1009.0

$$

ANZ835-935-AMZ111-154-330-350-352-354-370-450-454-472-251100-
...C-MAN AND BUOY OBSERVATIONS...

STATION/POSITION TIME  TEMP    WIND        PRES    WAVE   SWELL
                       AIR SEA DIR/SP/G            HT/PER HT/PER/DIR
                 (UTC) (F)     (DEG/KT/KT) (MB)    (FT/S) (FT/S/D)
BUOY 41004       0850   68 71  210/  4/  6 1008.3    7/10   7/120/10
BUOY 41008       0950   63 62  190/  6/  8 1008.5F   5/11   5/ 90/11
FOLLY BEACH CMAN 1000   61     210/  4/  4 1009.3R
CAPERS NEARSHORE 0908   60 61  170/  2/  4 1008.4F
FRIPP NEARSHORE  1008   62 61  210/  4/  6 1008.8R


STATION/POSITION TIME  TEMP    WIND        PRES    WAVE   SWELL
                       AIR SEA DIR/SP/G            HT/PER HT/PER/DIR
                 (UTC) (F)     (DEG/KT/KT) (MB)    (FT/S) (FT/S/D)
5E ST. MARYS GA  1000      64                N/A     5/10   2/100/11
FRYING PAN BUOY  1000   68 72  290/  2/  4 1008.1
BUOY 41025       0950   69 76  210/  4/  8 1008.1F   8/10   7/100/10
CAPE LOOKOUT NC  1000   62      30/  1/  2 1007.9F
BUOY 41002       0950   69 70  200/ 10/ 14 1006.8R  10/10  10/100/10
BUOY 41010       NOT AVBL
ST AUGUSTINE FL  1000   62 67  200/  5/  6 1010.5R


$$



USA.gov is the U.S. government's official web portal to all federal, state and local government web resources and services.